EW9439 Weather Reports


Display with metric or nautical units.
time (UTC)temp
F
wind
direction
speed
MPH
gust
MPH
rain 1hr
in
rain 24hr
in
rain mn
in
humidity
%
barometer
mb
20260505113020 49 87 0.0 0.0 0.00 0.00 0.00 90 1011.7
20260505111532 48 87 0.0 0.0 0.00 0.00 0.00 90 1011.5
20260505110105 48 87 0.0 0.0 0.00 0.00 0.00 89 1011.3
20260505101547 49 87 0.0 0.0 0.00 0.00 0.00 89 1011.2
20260505100047 49 87 0.0 0.0 0.00 0.00 0.00 89 1011.5
20260505094547 49 87 0.0 0.0 0.00 0.00 0.00 89 1011.5
20260505093050 49 87 0.0 0.0 0.00 0.00 0.00 88 1011.3
20260505091555 50 87 0.0 0.0 0.00 0.00 0.00 88 1011.3
20260505090050 50 87 0.0 0.0 0.00 0.00 0.00 88 1011.7
20260505084603 50 87 0.0 0.0 0.00 0.00 0.00 87 1011.7
20260505083111 50 87 0.0 0.0 0.00 0.00 0.00 87 1011.5
20260505081502 51 87 0.0 0.0 0.00 0.00 0.00 86 1011.6
20260505080007 51 87 0.0 0.0 0.00 0.00 0.00 86 1011.7
20260505074505 51 87 0.0 0.0 0.00 0.00 0.00 85 1011.6
20260505073008 51 87 0.0 0.0 0.00 0.00 0.00 85 1011.6
20260505071527 52 87 0.0 0.0 0.00 0.00 0.00 84 1011.7
20260505070030 52 87 0.0 0.0 0.00 0.00 0.00 83 1011.7
20260505064533 52 87 0.0 0.0 0.00 0.00 0.00 83 1011.7
20260505063028 53 87 0.0 0.0 0.00 0.00 0.00 82 1011.7
20260505061530 53 87 0.0 0.0 0.00 0.00 0.00 82 1011.8
20260505060033 53 87 0.0 0.0 0.00 0.00 0.00 81 1011.9
20260505054545 53 87 0.0 0.0 0.00 0.00 0.00 81 1012.0
20260505053038 54 87 0.0 0.0 0.00 0.00 0.00 80 1012.0
20260505051540 54 87 0.0 0.0 0.00 0.00 0.00 79 1012.0
20260505041545 57 87 0.0 0.0 0.00 0.00 0.00 74 1011.8
20260505040013 57 87 0.0 0.0 0.00 0.00 0.00 73 1011.8
20260505034507 58 87 0.0 0.0 0.00 0.00 0.00 71 1012.0
20260505033011 58 87 0.0 0.0 0.00 0.00 0.00 69 1012.1
20260505031510 59 87 0.0 0.0 0.00 0.00 0.00 67 1011.9
20260505030033 60 87 0.0 0.0 0.00 0.00 0.00 67 1012.0
20260505024519 61 87 0.0 0.0 0.00 0.00 0.00 66 1011.9
20260505023025 62 87 0.0 0.0 0.00 0.00 0.00 64 1011.9
20260505021527 63 87 0.0 0.0 0.00 0.00 0.00 60 1011.7
20260505020028 64 87 0.0 0.0 0.00 0.00 0.00 58 1011.5
20260505014538 65 87 0.0 0.0 0.00 0.00 0.00 58 1011.4
20260505013038 66 87 0.0 0.0 0.00 0.00 0.00 54 1011.4
20260505011532 67 87 0.0 0.0 0.00 0.00 0.00 51 1011.3
20260505010045 68 87 0.0 0.0 0.00 0.00 0.00 49 1011.2
20260505004600 69 87 0.0 0.0 0.00 0.00 0.00 47 1011.1
20260505003051 70 87 0.0 0.0 0.00 0.00 0.00 45 1011.0
20260505001555 71 87 0.0 0.0 0.00 0.00 0.00 44 1010.9
20260505000109 72 87 0.0 0.0 0.00 0.00 0.00 43 1010.9
20260504234555 72 87 0.0 0.0 0.00 0.00 0.00 44 1010.8
20260504233055 73 87 0.0 0.0 0.00 0.00 0.00 43 1010.9
20260504231622 73 87 0.0 0.0 0.00 0.00 0.00 44 1010.8
20260504230056 74 87 0.0 0.0 0.00 0.00 0.00 44 1010.9
20260504224504 75 87 0.0 0.0 0.00 0.00 0.00 42 1010.8
20260504223008 75 87 0.0 0.0 0.00 0.00 0.00 42 1010.9
20260504221536 75 157 0.0 0.0 0.00 0.00 0.00 39 1010.8
20260504220028 76 162 0.0 0.0 0.00 0.00 0.00 36 1010.9
20260504214546 76 172 0.0 1.0 0.00 0.00 0.00 38 1010.8
20260504213054 76 171 0.0 0.0 0.00 0.00 0.00 39 1010.8
20260504211553 76 167 0.0 6.0 0.00 0.00 0.00 40 1010.8
20260504210054 76 173 0.0 0.0 0.00 0.00 0.00 41 1010.9
20260504204554 77 169 0.0 0.0 0.00 0.00 0.00 41 1010.9
20260504204502 77 169 0.0 0.0 0.00 0.00 0.00 41 1010.9
20260504203052 77 180 0.0 0.0 0.00 0.00 0.00 39 1010.9
20260504201553 77 55 0.0 0.0 0.00 0.00 0.00 40 1011.2
20260504200052 77 348 0.0 0.0 0.00 0.00 0.00 42 1011.4
20260504194601 78 169 0.0 0.0 0.00 0.00 0.00 39 1011.6
20260504193052 77 160 0.0 0.0 0.00 0.00 0.00 42 1011.9
20260504191613 77 153 0.0 0.0 0.00 0.00 0.00 42 1012.0
20260504190002 75 66 0.0 0.0 0.00 0.00 0.00 44 1012.3
20260504184606 75 66 0.0 0.0 0.00 0.00 0.00 44 1012.4
20260504184513 75 66 0.0 0.0 0.00 0.00 0.00 44 1012.4
20260504183003 75 36 0.0 0.0 0.00 0.00 0.00 43 1012.5
20260504181506 75 235 0.0 0.0 0.00 0.00 0.00 42 1012.8
20260504180006 75 236 0.0 0.0 0.00 0.00 0.00 44 1013.0
20260504174507 75 188 0.0 0.0 0.00 0.00 0.00 46 1013.2
20260504173013 75 167 0.0 0.0 0.00 0.00 0.00 46 1013.4
20260504171507 75 185 0.0 0.0 0.00 0.00 0.00 46 1013.7